User: anonymous   Login
Location: Unspecified
(0.0000°N, 0.0000°E)
Time: 08:57:01
(UTC+00:00)
Language:

LAPAN A3 - Orbit

View from above orbital plane
View from above orbital plane
View from above satellite
View from above satellite

Ground track
Ground track

The orbit data is extracted from the following two-line orbital elements,

1 41603U 16040E   17204.80182541 +.00000054 +00000-0 +58104-5 0  9990
2 41603 097.4591 266.3439 0012506 312.1127 184.9737 15.19369001060218
Epoch (UTC): 23 July 2017 19:14:37
Eccentricity: 0.0012506
inclination: 97.4591°
perigee height: 499 km
apogee height: 516 km
right ascension of ascending node: 266.3439°
argument of perigee: 312.1127°
revolutions per day: 15.19369001
mean anomaly at epoch: 184.9737°
orbit number at epoch: 6021

The dashed part of the orbit path shows where the satellite is in the earth's shadow,  

DLR